Satellite: AO-49
Catalog number: 27605
Epoch time:      05355.89159038
Element set:     922
Inclination:      064.5587 deg
RA of node:       284.6049 deg
Eccentricity:    0.0064556
Arg of perigee:   200.0348 deg
Mean anomaly:     159.8213 deg
Mean motion:   14.72163300 rev/day
Decay rate:       -4.9e-07 rev/day^2
Epoch rev:           16148
Checksum:              319

Satellite: SO-50
Catalog number: 27607
Epoch time:      05356.75864657
Element set:     900
Inclination:      064.5594 deg
RA of node:       288.6173 deg
Eccentricity:    0.0064544
Arg of perigee:   198.3705 deg
Mean anomaly:     161.5063 deg
Mean motion:   14.71075704 rev/day
Decay rate:       1.31e-06 rev/day^2
Epoch rev:           16147
Checksum:              319

Satellite: AO-51
Catalog number: 28375
Epoch time:      05356.71695772
Element set:     418
Inclination:      098.1921 deg
RA of node:       051.5598 deg
Eccentricity:    0.0085183
Arg of perigee:   021.6692 deg
Mean anomaly:     338.8063 deg
Mean motion:   14.40496681 rev/day
Decay rate:        5.0e-07 rev/day^2
Epoch rev:            7775
Checksum:              337

Satellite: XO-53
Catalog number: 28894
Epoch time:      05356.77113203
Element set:     196
Inclination:      098.1818 deg
RA of node:       252.6938 deg
Eccentricity:    0.0017893
Arg of perigee:   006.9520 deg
Mean anomaly:     353.1934 deg
Mean motion:   14.59423398 rev/day
Decay rate:      -1.50e-06 rev/day^2
Epoch rev:             824
Checksum:              325

/EX
SB KEPS @ AMSAT  $ORB05356.W
Orbital Elements  05356.WEATHER

HR AMSAT ORBITAL ELEMENTS FOR WEATHER SATELLITES
FROM WA5QGD FORT WORTH,TX December 22, 2005
Send SUBSCRIBE KEPS/UNSUBSCRIBE KEPS to majordomo@amsat.org only
BID: ORB05356.W
TO ALL RADIO AMATEURS BT

Satellite: NOAA-10
Catalog number: 16969
Epoch time:      05355.85490379
Element set:      23
Inclination:      098.7645 deg
RA of node:       002.0799 deg
Eccentricity:    0.0011816
Arg of perigee:   309.7465 deg
Mean anomaly:     050.2680 deg
Mean motion:   14.27279873 rev/day
Decay rate:       -4.7e-07 rev/day^2
Epoch rev:             186
Checksum:              326

Satellite: NOAA-11
Catalog number: 19531
Epoch time:      05356.13317309
Element set:     912
Inclination:      098.8380 deg
RA of node:       081.4210 deg
Eccentricity:    0.0012391
Arg of perigee:   132.2395 deg
Mean anomaly:     227.9827 deg
Mean motion:   14.14784342 rev/day
Decay rate:       1.28e-06 rev/day^2
Epoch rev:           88950
Checksum:              298

Satellite: NOAA-12
Catalog number: 21263
Epoch time:      05356.15322268
Element set:     400
Inclination:      098.7183 deg
RA of node:       345.3078 deg
Eccentricity:    0.0012084
Arg of perigee:   241.2444 deg
Mean anomaly:     118.7528 deg
Mean motion:   14.25480273 rev/day
Decay rate:       1.14e-06 rev/day^2
Epoch rev:           75902
Checksum:              278

Satellite: MET-3/5
Catalog number: 21655
Epoch time:      05356.73584393
Element set:     994
Inclination:      082.5569 deg
RA of node:       025.4605 deg
Eccentricity:    0.0014240
Arg of perigee:   120.5383 deg
Mean anomaly:     239.7221 deg
Mean motion:   13.17004607 rev/day
Decay rate:        5.1e-07 rev/day^2
Epoch rev:           69013
Checksum:              291

Satellite: MET-2/21
Catalog number: 22782
Epoch time:      05355.85848021
Element set:    0385
Inclination:      082.5468 deg
RA of node:       112.1322 deg
Eccentricity:    0.0021449
Arg of perigee:   320.1969 deg
Mean anomaly:     039.7616 deg
Mean motion:   13.83598755 rev/day
Decay rate:       -4.1e-07 rev/day^2
Epoch rev:           62152
Checksum:              310

Satellite: OKEAN-4
Catalog number: 23317
Epoch time:      05356.89998895
Element set:     818
Inclination:      082.5404 deg
RA of node:       081.4274 deg
Eccentricity:    0.0020865
Arg of perigee:   233.5944 deg
Mean anomaly:     126.3354 deg
Mean motion:   14.82284330 rev/day
Decay rate:       3.31e-06 rev/day^2
Epoch rev:           60386
Checksum:              320

Satellite: NOAA-14
Catalog number: 23455
Epoch time:      05356.14093446
Element set:     918
Inclination:      099.0655 deg
RA of node:       047.3019 deg
Eccentricity:    0.0009329
Arg of perigee:   186.3780 deg
Mean anomaly:     173.7297 deg
Mean motion:   14.13622126 rev/day
Decay rate:       1.56e-06 rev/day^2
Epoch rev:           56605
Checksum:              314

Satellite: SICH-1
Catalog number: 23657
Epoch time:      05355.82958451
Element set:     622
Inclination:      082.5275 deg
RA of node:       223.2745 deg
Eccentricity:    0.0022750
Arg of perigee:   224.4342 deg
Mean anomaly:     135.5042 deg
Mean motion:   14.81287240 rev/day
Decay rate:       2.91e-06 rev/day^2
Epoch rev:           55573
Checksum:              289

Satellite: NOAA-15
Catalog number: 25338
Epoch time:      05356.02743792
Element set:     320
Inclination:      098.5143 deg
RA of node:       358.6606 deg
Eccentricity:    0.0010622
Arg of perigee:   166.6596 deg
Mean anomaly:     193.4855 deg
Mean motion:   14.24554750 rev/day
Decay rate:        3.7e-07 rev/day^2
Epoch rev:           39549
Checksum:              322

Satellite: RESURS
Catalog number: 25394
Epoch time:      05356.86175659
Element set:     259
Inclination:      098.5196 deg
RA of node:       060.4959 deg
Eccentricity:    0.0001491
Arg of perigee:   003.5139 deg
Mean anomaly:     356.6051 deg
Mean motion:   14.24091686 rev/day
Decay rate:        3.7e-07 rev/day^2
Epoch rev:           38730
Checksum:              320

